AAL908 KMIA-KDFW

Flight info

Callsign AAL908
Flight time 2h 39m
Altitude 40000
Route GLADZ4 BAGGS REMIS Y280 REDFN Q105 HRV PNUTS WHINY4
Aircraft MD11/H-SDE3FGHIJ2J5J7P1P2P3RWXY/LB1D1

Departure

Time 2026-05-06 20:34
Airport Miami International Airport (KMIA)

Arrival

Time 2026-05-06 23:13
Airport Dallas Fort Worth International Airport (KDFW)
Time Latitude Longitude Altitude Speed Heading
2026-05-06 19:47 25.79793 -80.27658 27 ft 0 kts 177°
2026-05-06 20:18 25.79804 -80.27659 27 ft 2 kts 177°
2026-05-06 20:18 25.79815 -80.27659 25 ft 2 kts 177°
2026-05-06 20:18 25.79837 -80.27661 26 ft 2 kts 177°
2026-05-06 20:18 25.79853 -80.27662 25 ft 2 kts 182°
2026-05-06 20:19 25.79864 -80.27660 26 ft 2 kts 204°
2026-05-06 20:19 25.79878 -80.27651 27 ft 2 kts 224°
2026-05-06 20:19 25.79889 -80.27637 25 ft 2 kts 245°
2026-05-06 20:19 25.79893 -80.27627 27 ft 1 kts 262°
2026-05-06 20:20 25.79893 -80.27626 27 ft 0 kts 264°
2026-05-06 20:25 25.79892 -80.27634 28 ft 4 kts 266°
2026-05-06 20:25 25.79891 -80.27675 27 ft 7 kts 266°
2026-05-06 20:26 25.79887 -80.27748 28 ft 11 kts 267°
2026-05-06 20:26 25.79883 -80.27829 25 ft 10 kts 266°
2026-05-06 20:26 25.79890 -80.27876 27 ft 5 kts 303°
2026-05-06 20:26 25.79919 -80.27889 27 ft 5 kts 351°
2026-05-06 20:27 25.79960 -80.27892 26 ft 7 kts 355°
2026-05-06 20:27 25.80017 -80.27900 26 ft 8 kts 343°
2026-05-06 20:27 25.80048 -80.27947 27 ft 9 kts 283°
2026-05-06 20:27 25.80048 -80.28027 27 ft 12 kts 268°
2026-05-06 20:28 25.80044 -80.28126 27 ft 13 kts 267°
2026-05-06 20:28 25.80040 -80.28235 27 ft 15 kts 267°
2026-05-06 20:28 25.80035 -80.28361 27 ft 18 kts 267°
2026-05-06 20:28 25.80028 -80.28510 28 ft 20 kts 267°
2026-05-06 20:29 25.80022 -80.28653 33 ft 16 kts 267°
2026-05-06 20:29 25.80018 -80.28764 34 ft 14 kts 268°
2026-05-06 20:29 25.80013 -80.28882 33 ft 18 kts 267°
2026-05-06 20:29 25.80006 -80.29038 32 ft 22 kts 267°
2026-05-06 20:30 25.79998 -80.29216 33 ft 23 kts 267°
2026-05-06 20:30 25.79984 -80.29584 25 ft 24 kts 268°
2026-05-06 20:30 25.79976 -80.29746 29 ft 19 kts 266°
2026-05-06 20:31 25.79970 -80.29894 25 ft 19 kts 268°
2026-05-06 20:31 25.79964 -80.30017 27 ft 10 kts 266°
2026-05-06 20:31 25.79977 -80.30087 27 ft 10 kts 298°
2026-05-06 20:31 25.80015 -80.30122 29 ft 5 kts 337°
2026-05-06 20:32 25.80056 -80.30123 28 ft 6 kts 15°
2026-05-06 20:32 25.80071 -80.30102 30 ft 5 kts 67°
2026-05-06 20:32 25.80074 -80.30073 28 ft 0 kts 88°
2026-05-06 20:33 25.80074 -80.30070 28 ft 3 kts 88°
2026-05-06 20:33 25.80080 -80.29921 27 ft 54 kts 87°
2026-05-06 20:33 25.80111 -80.29141 33 ft 144 kts 88°
2026-05-06 20:33 25.80186 -80.27852 586 ft 174 kts 87°
2026-05-06 20:34 25.80265 -80.26508 1837 ft 175 kts 89°
2026-05-06 20:34 25.80327 -80.25073 2531 ft 204 kts 88°
2026-05-06 20:34 25.80403 -80.23382 3183 ft 235 kts 87°
2026-05-06 20:34 25.80502 -80.21434 3881 ft 268 kts 87°
2026-05-06 20:35 25.80759 -80.19382 5128 ft 270 kts 74°
2026-05-06 20:35 25.81577 -80.17507 6404 ft 273 kts 50°
2026-05-06 20:35 25.83057 -80.16237 7540 ft 274 kts 22°
2026-05-06 20:35 25.84917 -80.15772 8703 ft 276 kts
2026-05-06 20:36 25.86861 -80.15667 9812 ft 280 kts
2026-05-06 20:36 25.88871 -80.15683 10369 ft 304 kts 354°
2026-05-06 20:36 25.91036 -80.16170 10497 ft 337 kts 345°
2026-05-06 20:36 25.93363 -80.16972 10874 ft 356 kts 341°
2026-05-06 20:37 25.95642 -80.18100 11692 ft 361 kts 331°
2026-05-06 20:37 25.97643 -80.19824 12540 ft 368 kts 315°
2026-05-06 20:37 25.99094 -80.22199 13333 ft 378 kts 297°
2026-05-06 20:37 25.99850 -80.25009 14059 ft 389 kts 283°
2026-05-06 20:38 26.00098 -80.28023 14783 ft 394 kts 274°
2026-05-06 20:38 26.00071 -80.31085 15525 ft 398 kts 271°
2026-05-06 20:38 25.99971 -80.34171 16306 ft 400 kts 271°
2026-05-06 20:38 25.99879 -80.37282 17081 ft 402 kts 271°
2026-05-06 20:39 25.99713 -80.40403 17814 ft 406 kts 265°
2026-05-06 20:39 25.99023 -80.43476 18526 ft 414 kts 250°
2026-05-06 20:39 25.97637 -80.46269 19116 ft 421 kts 239°
2026-05-06 20:39 25.95859 -80.48902 19720 ft 426 kts 234°
2026-05-06 20:40 25.93963 -80.51451 20287 ft 430 kts 233°
2026-05-06 20:40 25.92031 -80.54021 20855 ft 434 kts 233°
2026-05-06 20:40 25.90110 -80.56623 21538 ft 435 kts 234°
2026-05-06 20:40 25.88212 -80.59249 22273 ft 438 kts 235°
2026-05-06 20:41 25.86336 -80.61887 22987 ft 441 kts 236°
2026-05-06 20:41 25.84433 -80.64590 23712 ft 445 kts 236°
2026-05-06 20:41 25.82528 -80.67307 24341 ft 448 kts 236°
2026-05-06 20:41 25.80606 -80.70054 25019 ft 451 kts 236°
2026-05-06 20:42 25.78775 -80.72888 25641 ft 450 kts 244°
2026-05-06 20:42 25.77448 -80.75980 26311 ft 448 kts 253°
2026-05-06 20:42 25.76454 -80.79268 26957 ft 449 kts 257°
2026-05-06 20:42 25.75601 -80.82629 27606 ft 452 kts 258°
2026-05-06 20:43 25.74776 -80.86014 28252 ft 456 kts 258°
2026-05-06 20:43 25.73937 -80.89388 28883 ft 460 kts 257°
2026-05-06 20:43 25.73055 -80.92814 29547 ft 462 kts 257°
2026-05-06 20:43 25.72142 -80.96262 30160 ft 466 kts 256°
2026-05-06 20:44 25.71213 -80.99711 30648 ft 469 kts 256°
2026-05-06 20:44 25.70277 -81.03149 31190 ft 469 kts 256°
2026-05-06 20:44 25.69333 -81.06606 31831 ft 466 kts 256°
2026-05-06 20:44 25.68393 -81.10040 32481 ft 463 kts 256°
2026-05-06 20:45 25.67470 -81.13434 33077 ft 461 kts 257°
2026-05-06 20:45 25.66683 -81.16831 33656 ft 457 kts 261°
2026-05-06 20:45 25.66223 -81.20300 34224 ft 451 kts 268°
2026-05-06 20:45 25.66201 -81.23777 34711 ft 447 kts 276°
2026-05-06 20:46 25.66620 -81.27139 35144 ft 444 kts 283°
2026-05-06 20:46 25.67456 -81.30432 35577 ft 442 kts 290°
2026-05-06 20:46 25.68651 -81.33591 35989 ft 441 kts 295°
2026-05-06 20:46 25.70019 -81.36631 36436 ft 439 kts 297°
2026-05-06 20:47 25.71437 -81.39630 36894 ft 437 kts 297°
2026-05-06 20:47 25.72834 -81.42579 37293 ft 436 kts 297°
2026-05-06 20:47 25.74230 -81.45572 37680 ft 435 kts 297°
2026-05-06 20:47 25.75602 -81.48559 38054 ft 435 kts 296°
2026-05-06 20:48 25.76962 -81.51554 38422 ft 434 kts 296°
2026-05-06 20:48 25.78314 -81.54554 38770 ft 433 kts 296°
2026-05-06 20:48 25.79658 -81.57548 39065 ft 432 kts 296°
2026-05-06 20:48 25.80985 -81.60509 39348 ft 431 kts 296°
2026-05-06 20:49 25.82323 -81.63495 39640 ft 431 kts 296°
2026-05-06 20:49 25.83655 -81.66469 39907 ft 430 kts 296°
2026-05-06 20:49 25.84973 -81.69417 40032 ft 431 kts 296°
2026-05-06 20:50 25.87696 -81.75351 40067 ft 432 kts 300°
2026-05-06 20:50 25.91581 -81.80431 40072 ft 435 kts 318°
2026-05-06 20:51 25.96461 -81.84455 40068 ft 437 kts 322°
2026-05-06 20:51 26.01416 -81.88400 40065 ft 437 kts 321°
2026-05-06 20:52 26.06267 -81.92429 40062 ft 436 kts 320°
2026-05-06 20:52 26.11097 -81.96526 40058 ft 435 kts 320°
2026-05-06 20:53 26.15891 -82.00614 40055 ft 435 kts 320°
2026-05-06 20:53 26.20707 -82.04723 40057 ft 435 kts 320°
2026-05-06 20:54 26.25490 -82.08806 40055 ft 435 kts 320°
2026-05-06 20:54 26.30311 -82.12924 40059 ft 435 kts 320°
2026-05-06 20:55 26.35127 -82.17043 40068 ft 435 kts 320°
2026-05-06 20:55 26.39909 -82.21137 40059 ft 434 kts 319°
2026-05-06 20:56 26.44709 -82.25251 40061 ft 434 kts 319°
2026-05-06 20:56 26.49468 -82.29335 40061 ft 434 kts 319°
2026-05-06 20:57 26.54279 -82.33467 40058 ft 434 kts 319°
2026-05-06 20:57 26.59028 -82.37561 40062 ft 434 kts 319°
2026-05-06 20:58 26.63817 -82.41698 40055 ft 434 kts 319°
2026-05-06 20:58 26.68580 -82.45807 40061 ft 433 kts 319°
2026-05-06 20:59 26.73360 -82.49930 40056 ft 432 kts 319°
2026-05-06 20:59 26.78125 -82.54046 40056 ft 432 kts 319°
2026-05-06 21:00 26.82852 -82.58133 40059 ft 432 kts 319°
2026-05-06 21:00 26.87610 -82.62251 40059 ft 432 kts 319°
2026-05-06 21:01 26.92335 -82.66345 40060 ft 432 kts 319°
2026-05-06 21:01 26.97087 -82.70467 40059 ft 432 kts 319°
2026-05-06 21:02 27.01823 -82.74579 40053 ft 430 kts 319°
2026-05-06 21:02 27.06565 -82.78701 40059 ft 430 kts 319°
2026-05-06 21:03 27.11275 -82.82870 40056 ft 430 kts 315°
2026-05-06 21:03 27.15068 -82.87913 40049 ft 423 kts 297°
2026-05-06 21:04 27.17286 -82.94033 40055 ft 423 kts 288°
2026-05-06 21:04 27.19089 -83.00298 40049 ft 423 kts 288°
2026-05-06 21:05 27.20979 -83.06565 40049 ft 423 kts 289°
2026-05-06 21:05 27.22938 -83.12811 40047 ft 423 kts 289°
2026-05-06 21:06 27.24587 -83.18015 40045 ft 424 kts 289°
2026-05-06 21:06 27.26557 -83.24233 40050 ft 424 kts 289°
2026-05-06 21:07 27.28533 -83.30483 40049 ft 424 kts 289°
2026-05-06 21:07 27.30497 -83.36711 40047 ft 424 kts 289°
2026-05-06 21:08 27.32470 -83.42978 40057 ft 423 kts 289°
2026-05-06 21:08 27.34419 -83.49180 40047 ft 421 kts 289°
2026-05-06 21:09 27.36370 -83.55402 40046 ft 421 kts 289°
2026-05-06 21:09 27.38305 -83.61582 40046 ft 421 kts 289°
2026-05-06 21:10 27.40252 -83.67811 40047 ft 421 kts 289°
2026-05-06 21:10 27.42192 -83.74029 40047 ft 421 kts 289°
2026-05-06 21:11 27.44123 -83.80257 40048 ft 421 kts 289°
2026-05-06 21:11 27.46042 -83.86489 40047 ft 420 kts 289°
2026-05-06 21:12 27.47958 -83.92685 40042 ft 421 kts 289°
2026-05-06 21:12 27.49887 -83.98919 40047 ft 421 kts 289°
2026-05-06 21:13 27.51809 -84.05133 40049 ft 421 kts 289°
2026-05-06 21:13 27.53740 -84.11386 40049 ft 421 kts 288°
2026-05-06 21:14 27.55655 -84.17602 40049 ft 422 kts 288°
2026-05-06 21:14 27.57580 -84.23863 40048 ft 422 kts 288°
2026-05-06 21:15 27.59492 -84.30089 40047 ft 422 kts 288°
2026-05-06 21:15 27.61406 -84.36336 40047 ft 422 kts 288°
2026-05-06 21:16 27.63313 -84.42569 40051 ft 422 kts 288°
2026-05-06 21:16 27.65233 -84.48857 40047 ft 422 kts 288°
2026-05-06 21:17 27.67134 -84.55095 40044 ft 422 kts 288°
2026-05-06 21:17 27.69033 -84.61338 40043 ft 422 kts 288°
2026-05-06 21:18 27.70935 -84.67618 40041 ft 422 kts 288°
2026-05-06 21:18 27.72821 -84.73903 40042 ft 422 kts 288°
2026-05-06 21:19 27.74699 -84.80143 40042 ft 422 kts 288°
2026-05-06 21:19 27.76595 -84.86428 40040 ft 422 kts 288°
2026-05-06 21:20 27.78481 -84.92685 40039 ft 422 kts 288°
2026-05-06 21:20 27.80373 -84.98974 40042 ft 422 kts 288°
2026-05-06 21:21 27.82252 -85.05230 40033 ft 422 kts 288°
2026-05-06 21:21 27.84141 -85.11532 40040 ft 423 kts 288°
2026-05-06 21:22 27.86018 -85.17804 40041 ft 423 kts 288°
2026-05-06 21:22 27.87903 -85.24117 40038 ft 423 kts 288°
2026-05-06 21:23 27.89788 -85.30400 40033 ft 423 kts 288°
2026-05-06 21:23 27.91694 -85.36706 40033 ft 423 kts 288°
2026-05-06 21:24 27.93590 -85.42965 40028 ft 423 kts 288°
2026-05-06 21:24 27.95504 -85.49290 40032 ft 424 kts 288°
2026-05-06 21:25 27.97413 -85.55614 40031 ft 424 kts 288°
2026-05-06 21:25 27.99308 -85.61901 40038 ft 424 kts 288°
2026-05-06 21:26 28.01207 -85.68213 40034 ft 422 kts 287°
2026-05-06 21:26 28.03085 -85.74468 40030 ft 421 kts 287°
2026-05-06 21:27 28.04974 -85.80773 40030 ft 421 kts 287°
2026-05-06 21:27 28.06846 -85.87031 40031 ft 421 kts 287°
2026-05-06 21:28 28.08723 -85.93320 40021 ft 421 kts 287°
2026-05-06 21:28 28.10600 -85.99617 40025 ft 421 kts 287°
2026-05-06 21:29 28.12463 -86.05882 40023 ft 421 kts 287°
2026-05-06 21:29 28.14333 -86.12181 40026 ft 421 kts 287°
2026-05-06 21:30 28.16170 -86.18431 40021 ft 421 kts 287°
2026-05-06 21:30 28.18020 -86.24742 40023 ft 422 kts 287°
2026-05-06 21:31 28.19867 -86.31017 40025 ft 422 kts 287°
2026-05-06 21:31 28.21728 -86.37338 40020 ft 422 kts 287°
2026-05-06 21:32 28.23578 -86.43627 40022 ft 422 kts 287°
2026-05-06 21:32 28.26359 -86.53109 40016 ft 422 kts 287°
2026-05-06 21:33 28.28214 -86.59448 40014 ft 422 kts 287°
2026-05-06 21:33 28.30052 -86.65740 40011 ft 422 kts 287°
2026-05-06 21:34 28.31899 -86.72079 40013 ft 422 kts 287°
2026-05-06 21:34 28.33734 -86.78375 40019 ft 421 kts 287°
2026-05-06 21:35 28.35583 -86.84697 40011 ft 420 kts 287°
2026-05-06 21:35 28.37415 -86.90965 40009 ft 420 kts 287°
2026-05-06 21:36 28.39246 -86.97236 40009 ft 419 kts 286°
2026-05-06 21:36 28.41079 -87.03526 40008 ft 419 kts 286°
2026-05-06 21:37 28.42914 -87.09836 40004 ft 419 kts 286°
2026-05-06 21:37 28.44734 -87.16107 40003 ft 419 kts 286°
2026-05-06 21:38 28.46559 -87.22408 40000 ft 419 kts 286°
2026-05-06 21:38 28.48372 -87.28680 40000 ft 419 kts 286°
2026-05-06 21:39 28.50192 -87.34984 40000 ft 419 kts 286°
2026-05-06 21:39 28.52010 -87.41299 39997 ft 419 kts 286°
2026-05-06 21:40 28.53811 -87.47563 39995 ft 419 kts 286°
2026-05-06 21:40 28.55623 -87.53882 39996 ft 419 kts 286°
2026-05-06 21:41 28.57427 -87.60190 39992 ft 419 kts 286°
2026-05-06 21:41 28.59202 -87.66474 39993 ft 419 kts 286°
2026-05-06 21:42 28.60996 -87.72806 39988 ft 419 kts 285°
2026-05-06 21:42 28.62782 -87.79093 39989 ft 419 kts 285°
2026-05-06 21:43 28.64581 -87.85424 39987 ft 419 kts 285°
2026-05-06 21:43 28.66371 -87.91736 39979 ft 416 kts 285°
2026-05-06 21:44 28.68137 -87.97978 39994 ft 416 kts 285°
2026-05-06 21:44 28.69913 -88.04268 39977 ft 416 kts 285°
2026-05-06 21:45 28.71658 -88.10489 39988 ft 416 kts 285°
2026-05-06 21:45 28.73411 -88.16789 39974 ft 416 kts 285°
2026-05-06 21:46 28.75166 -88.23090 39983 ft 416 kts 285°
2026-05-06 21:46 28.76910 -88.29353 39976 ft 416 kts 285°
2026-05-06 21:47 28.78663 -88.35656 39970 ft 416 kts 285°
2026-05-06 21:47 28.80485 -88.41917 39979 ft 418 kts 290°
2026-05-06 21:48 28.83378 -88.47673 39956 ft 423 kts 298°
2026-05-06 21:48 28.86549 -88.53358 39971 ft 423 kts 297°
2026-05-06 21:49 28.89559 -88.59086 39971 ft 423 kts 296°
2026-05-06 21:49 28.92516 -88.64905 39969 ft 423 kts 296°
2026-05-06 21:50 28.95450 -88.70731 39974 ft 423 kts 296°
2026-05-06 21:50 28.98365 -88.76528 39976 ft 420 kts 295°
2026-05-06 21:51 29.01257 -88.82286 39962 ft 419 kts 295°
2026-05-06 21:51 29.03675 -88.87107 39959 ft 420 kts 295°
2026-05-06 21:52 29.07058 -88.93859 39961 ft 420 kts 295°
2026-05-06 21:52 29.09471 -88.98680 39958 ft 420 kts 295°
2026-05-06 21:53 29.12364 -89.04471 39957 ft 419 kts 295°
2026-05-06 21:53 29.15262 -89.10278 39962 ft 419 kts 295°
2026-05-06 21:54 29.18135 -89.16044 39967 ft 418 kts 295°
2026-05-06 21:54 29.21019 -89.21843 39963 ft 418 kts 295°
2026-05-06 21:55 29.23866 -89.27616 39963 ft 418 kts 295°
2026-05-06 21:55 29.26735 -89.33421 39969 ft 416 kts 295°
2026-05-06 21:56 29.29585 -89.39180 39967 ft 415 kts 295°
2026-05-06 21:56 29.32416 -89.44903 39963 ft 415 kts 295°
2026-05-06 21:57 29.35252 -89.50645 39965 ft 415 kts 295°
2026-05-06 21:57 29.38101 -89.56420 39969 ft 415 kts 295°
2026-05-06 21:58 29.40941 -89.62185 39968 ft 415 kts 294°
2026-05-06 21:58 29.43776 -89.67947 39968 ft 415 kts 294°
2026-05-06 21:59 29.46595 -89.73687 39963 ft 415 kts 294°
2026-05-06 21:59 29.49428 -89.79462 39972 ft 415 kts 294°
2026-05-06 22:00 29.52256 -89.85235 39970 ft 415 kts 294°
2026-05-06 22:00 29.55068 -89.90984 39982 ft 413 kts 294°
2026-05-06 22:01 29.57864 -89.96707 39972 ft 412 kts 294°
2026-05-06 22:01 29.60673 -90.02467 39958 ft 411 kts 294°
2026-05-06 22:02 29.63457 -90.08213 39957 ft 410 kts 294°
2026-05-06 22:02 29.66221 -90.13935 39953 ft 410 kts 294°
2026-05-06 22:03 29.68992 -90.19655 39950 ft 411 kts 294°
2026-05-06 22:03 29.71783 -90.25414 39956 ft 410 kts 294°
2026-05-06 22:04 29.74545 -90.31119 39955 ft 410 kts 294°
2026-05-06 22:04 29.77327 -90.36872 39952 ft 410 kts 294°
2026-05-06 22:05 29.80095 -90.42607 39952 ft 411 kts 294°
2026-05-06 22:05 29.82879 -90.48382 39972 ft 411 kts 294°
2026-05-06 22:06 29.85651 -90.54138 39955 ft 409 kts 294°
2026-05-06 22:06 29.88397 -90.59852 39948 ft 409 kts 294°
2026-05-06 22:07 29.91139 -90.65565 39943 ft 408 kts 294°
2026-05-06 22:07 29.93889 -90.71304 39949 ft 408 kts 294°
2026-05-06 22:08 29.96642 -90.77056 39941 ft 408 kts 293°
2026-05-06 22:08 29.99375 -90.82775 39947 ft 409 kts 293°
2026-05-06 22:09 30.02121 -90.88532 39944 ft 409 kts 293°
2026-05-06 22:09 30.04834 -90.94270 39924 ft 409 kts 293°
2026-05-06 22:10 30.07570 -91.00050 39915 ft 409 kts 293°
2026-05-06 22:10 30.10285 -91.05773 39914 ft 409 kts 293°
2026-05-06 22:11 30.13018 -91.11532 39921 ft 407 kts 293°
2026-05-06 22:11 30.15734 -91.17265 39928 ft 406 kts 293°
2026-05-06 22:12 30.18435 -91.22978 39925 ft 406 kts 293°
2026-05-06 22:12 30.21148 -91.28722 39927 ft 406 kts 293°
2026-05-06 22:13 30.23846 -91.34445 39926 ft 406 kts 293°
2026-05-06 22:13 30.26556 -91.40199 39924 ft 406 kts 293°
2026-05-06 22:14 30.29243 -91.45913 39922 ft 406 kts 293°
2026-05-06 22:14 30.31947 -91.51673 39922 ft 406 kts 293°
2026-05-06 22:15 30.34635 -91.57406 39927 ft 405 kts 292°
2026-05-06 22:15 30.37313 -91.63127 39927 ft 405 kts 292°
2026-05-06 22:16 30.39998 -91.68873 39912 ft 405 kts 293°
2026-05-06 22:16 30.42677 -91.74626 39911 ft 405 kts 292°
2026-05-06 22:17 30.45328 -91.80361 39914 ft 405 kts 292°
2026-05-06 22:17 30.47998 -91.86120 39908 ft 405 kts 292°
2026-05-06 22:18 30.50653 -91.91841 39897 ft 405 kts 292°
2026-05-06 22:18 30.53334 -91.97620 39889 ft 406 kts 292°
2026-05-06 22:19 30.55998 -92.03372 39887 ft 406 kts 292°
2026-05-06 22:19 30.58678 -92.09165 39888 ft 406 kts 292°
2026-05-06 22:20 30.61353 -92.14957 39887 ft 406 kts 292°
2026-05-06 22:20 30.64006 -92.20709 39888 ft 406 kts 292°
2026-05-06 22:21 30.66676 -92.26510 39889 ft 406 kts 292°
2026-05-06 22:21 30.69325 -92.32272 39895 ft 406 kts 292°
2026-05-06 22:22 30.71988 -92.38072 39882 ft 406 kts 292°
2026-05-06 22:22 30.74640 -92.43859 39882 ft 406 kts 292°
2026-05-06 22:23 30.77283 -92.49635 39880 ft 405 kts 292°
2026-05-06 22:23 30.79933 -92.55433 39880 ft 405 kts 292°
2026-05-06 22:24 30.82560 -92.61216 39878 ft 405 kts 292°
2026-05-06 22:24 30.85192 -92.67038 39879 ft 405 kts 292°
2026-05-06 22:25 30.87994 -92.72736 39880 ft 410 kts 297°
2026-05-06 22:25 30.91087 -92.78327 39880 ft 409 kts 295°
2026-05-06 22:26 30.93916 -92.84024 39896 ft 406 kts 292°
2026-05-06 22:26 30.96589 -92.89788 39879 ft 405 kts 292°
2026-05-06 22:27 30.99238 -92.95617 39875 ft 405 kts 292°
2026-05-06 22:27 31.01854 -93.01390 39872 ft 405 kts 292°
2026-05-06 22:28 31.04490 -93.07215 39868 ft 406 kts 292°
2026-05-06 22:28 31.07118 -93.13027 39869 ft 407 kts 292°
2026-05-06 22:29 31.09757 -93.18871 39870 ft 407 kts 292°
2026-05-06 22:29 31.12422 -93.24666 39870 ft 407 kts 292°
2026-05-06 22:30 31.15166 -93.30446 39876 ft 408 kts 293°
2026-05-06 22:30 31.17928 -93.36235 39876 ft 408 kts 293°
2026-05-06 22:31 31.20690 -93.42035 39886 ft 409 kts 293°
2026-05-06 22:31 31.23447 -93.47841 39886 ft 412 kts 293°
2026-05-06 22:32 31.26231 -93.53707 39889 ft 412 kts 292°
2026-05-06 22:32 31.29015 -93.59583 39889 ft 412 kts 292°
2026-05-06 22:33 31.31776 -93.65421 39892 ft 412 kts 292°
2026-05-06 22:33 31.34550 -93.71295 39892 ft 412 kts 292°
2026-05-06 22:34 31.37304 -93.77136 39892 ft 412 kts 292°
2026-05-06 22:34 31.40076 -93.83024 39911 ft 411 kts 291°
2026-05-06 22:35 31.42797 -93.88805 39879 ft 406 kts 291°
2026-05-06 22:35 31.45520 -93.94612 39894 ft 405 kts 291°
2026-05-06 22:36 31.48214 -94.00363 39903 ft 404 kts 291°
2026-05-06 22:36 31.50920 -94.06152 39900 ft 403 kts 290°
2026-05-06 22:37 31.53582 -94.11900 39900 ft 403 kts 290°
2026-05-06 22:37 31.56267 -94.17689 39895 ft 403 kts 290°
2026-05-06 22:38 31.58928 -94.23406 39914 ft 399 kts 290°
2026-05-06 22:38 31.61584 -94.29120 39909 ft 398 kts 290°
2026-05-06 22:39 31.64235 -94.34835 39910 ft 398 kts 290°
2026-05-06 22:39 31.66869 -94.40519 39912 ft 397 kts 290°
2026-05-06 22:40 31.69062 -94.45257 39918 ft 397 kts 290°
2026-05-06 22:40 31.71701 -94.50967 39919 ft 397 kts 290°
2026-05-06 22:41 31.75617 -94.59447 39931 ft 392 kts 289°
2026-05-06 22:42 31.78205 -94.65066 39927 ft 390 kts 289°
2026-05-06 22:42 31.80787 -94.70689 39926 ft 390 kts 289°
2026-05-06 22:43 31.83348 -94.76271 39602 ft 390 kts 289°
2026-05-06 22:43 31.84646 -94.79105 39174 ft 391 kts 289°
2026-05-06 22:43 31.85939 -94.81926 38616 ft 391 kts 289°
2026-05-06 22:43 31.87217 -94.84717 37956 ft 392 kts 289°
2026-05-06 22:44 31.88519 -94.87568 37300 ft 396 kts 289°
2026-05-06 22:44 31.89832 -94.90445 36669 ft 399 kts 289°
2026-05-06 22:44 31.91137 -94.93316 36077 ft 403 kts 289°
2026-05-06 22:44 31.92459 -94.96244 35467 ft 407 kts 289°
2026-05-06 22:45 31.93794 -94.99198 34878 ft 410 kts 289°
2026-05-06 22:45 31.95134 -95.02157 34336 ft 414 kts 289°
2026-05-06 22:45 31.96501 -95.05171 33736 ft 418 kts 289°
2026-05-06 22:45 31.97862 -95.08167 33141 ft 420 kts 289°
2026-05-06 22:46 31.99185 -95.11234 32512 ft 415 kts 285°
2026-05-06 22:46 32.00182 -95.14411 31914 ft 411 kts 280°
2026-05-06 22:46 32.00960 -95.17603 31320 ft 408 kts 278°
2026-05-06 22:46 32.01665 -95.20803 30733 ft 396 kts 278°
2026-05-06 22:47 32.02339 -95.23917 30162 ft 388 kts 278°
2026-05-06 22:47 32.03005 -95.26988 29527 ft 384 kts 278°
2026-05-06 22:47 32.03672 -95.30025 28872 ft 381 kts 278°
2026-05-06 22:47 32.04342 -95.33037 28224 ft 378 kts 278°
2026-05-06 22:48 32.05012 -95.36020 27607 ft 375 kts 278°
2026-05-06 22:48 32.05679 -95.38985 27001 ft 373 kts 278°
2026-05-06 22:48 32.06336 -95.41897 26568 ft 370 kts 278°
2026-05-06 22:48 32.06997 -95.44829 26213 ft 369 kts 278°
2026-05-06 22:49 32.07655 -95.47751 25921 ft 367 kts 278°
2026-05-06 22:49 32.08310 -95.50663 25695 ft 366 kts 278°
2026-05-06 22:49 32.08954 -95.53528 25467 ft 365 kts 278°
2026-05-06 22:49 32.09626 -95.56414 25236 ft 365 kts 278°
2026-05-06 22:50 32.10339 -95.59289 25003 ft 365 kts 279°
2026-05-06 22:50 32.11069 -95.62150 24790 ft 364 kts 279°
2026-05-06 22:50 32.11804 -95.65005 24502 ft 364 kts 279°
2026-05-06 22:50 32.12540 -95.67861 24053 ft 362 kts 279°
2026-05-06 22:51 32.13270 -95.70694 23615 ft 360 kts 279°
2026-05-06 22:51 32.13996 -95.73520 23091 ft 359 kts 280°
2026-05-06 22:51 32.14690 -95.76303 22548 ft 355 kts 279°
2026-05-06 22:51 32.15353 -95.79103 22078 ft 353 kts 279°
2026-05-06 22:52 32.16000 -95.81890 21787 ft 350 kts 278°
2026-05-06 22:52 32.16640 -95.84670 21597 ft 349 kts 278°
2026-05-06 22:52 32.17270 -95.87402 21546 ft 349 kts 278°
2026-05-06 22:52 32.17908 -95.90173 21492 ft 348 kts 278°
2026-05-06 22:53 32.18545 -95.92938 21446 ft 348 kts 278°
2026-05-06 22:53 32.19182 -95.95700 21393 ft 348 kts 278°
2026-05-06 22:53 32.19811 -95.98430 21143 ft 348 kts 278°
2026-05-06 22:53 32.20444 -96.01178 20795 ft 346 kts 278°
2026-05-06 22:54 32.21074 -96.03911 20430 ft 344 kts 279°
2026-05-06 22:54 32.21700 -96.06629 20052 ft 342 kts 279°
2026-05-06 22:54 32.22323 -96.09338 19690 ft 340 kts 278°
2026-05-06 22:54 32.22941 -96.12026 19280 ft 337 kts 278°
2026-05-06 22:55 32.23546 -96.14665 18834 ft 334 kts 278°
2026-05-06 22:55 32.24153 -96.17315 18369 ft 333 kts 278°
2026-05-06 22:55 32.24756 -96.19954 17753 ft 331 kts 278°
2026-05-06 22:55 32.25354 -96.22574 17086 ft 329 kts 278°
2026-05-06 22:56 32.25944 -96.25159 16451 ft 327 kts 279°
2026-05-06 22:56 32.26534 -96.27751 15811 ft 324 kts 279°
2026-05-06 22:56 32.27119 -96.30297 15254 ft 315 kts 280°
2026-05-06 22:56 32.27966 -96.32658 14832 ft 314 kts 294°
2026-05-06 22:57 32.29270 -96.34715 14310 ft 315 kts 302°
2026-05-06 22:57 32.30740 -96.36648 13787 ft 313 kts 306°
2026-05-06 22:57 32.32282 -96.38392 13358 ft 308 kts 310°
2026-05-06 22:57 32.33907 -96.40054 12832 ft 306 kts 312°
2026-05-06 22:58 32.35537 -96.41681 12377 ft 304 kts 313°
2026-05-06 22:58 32.37143 -96.43280 12081 ft 297 kts 313°
2026-05-06 22:58 32.38539 -96.44949 11970 ft 284 kts 301°
2026-05-06 22:58 32.39610 -96.46890 11886 ft 280 kts 295°
2026-05-06 22:59 32.40572 -96.48893 11757 ft 280 kts 294°
2026-05-06 22:59 32.41513 -96.50915 11515 ft 282 kts 294°
2026-05-06 22:59 32.42454 -96.52948 11028 ft 280 kts 294°
2026-05-06 22:59 32.43379 -96.54945 10551 ft 279 kts 295°
2026-05-06 23:00 32.44304 -96.56938 10135 ft 275 kts 295°
2026-05-06 23:00 32.45230 -96.58927 9667 ft 275 kts 295°
2026-05-06 23:00 32.46145 -96.60899 9222 ft 274 kts 295°
2026-05-06 23:00 32.47060 -96.62868 8842 ft 270 kts 295°
2026-05-06 23:01 32.47960 -96.64806 8453 ft 267 kts 295°
2026-05-06 23:01 32.48817 -96.66746 8133 ft 261 kts 288°
2026-05-06 23:01 32.49221 -96.68774 7937 ft 257 kts 276°
2026-05-06 23:01 32.49403 -96.70882 7508 ft 256 kts 273°
2026-05-06 23:02 32.49534 -96.72974 7142 ft 253 kts 272°
2026-05-06 23:02 32.49657 -96.75057 6783 ft 252 kts 272°
2026-05-06 23:02 32.49777 -96.77136 6428 ft 253 kts 272°
2026-05-06 23:02 32.49893 -96.79207 6111 ft 248 kts 272°
2026-05-06 23:03 32.49983 -96.81202 6042 ft 239 kts 271°
2026-05-06 23:03 32.50062 -96.83140 6033 ft 239 kts 274°
2026-05-06 23:03 32.50542 -96.85103 6032 ft 248 kts 294°
2026-05-06 23:03 32.51332 -96.86890 6025 ft 242 kts 297°
2026-05-06 23:04 32.52147 -96.88651 6021 ft 242 kts 296°
2026-05-06 23:04 32.52935 -96.90411 6024 ft 242 kts 296°
2026-05-06 23:04 32.53704 -96.92175 5918 ft 239 kts 295°
2026-05-06 23:04 32.54448 -96.93921 5523 ft 240 kts 295°
2026-05-06 23:05 32.55196 -96.95699 5168 ft 241 kts 295°
2026-05-06 23:05 32.55936 -96.97494 4804 ft 243 kts 295°
2026-05-06 23:05 32.56673 -96.99294 4391 ft 242 kts 295°
2026-05-06 23:05 32.57397 -97.01074 4110 ft 234 kts 295°
2026-05-06 23:06 32.58084 -97.02733 4011 ft 215 kts 298°
2026-05-06 23:06 32.58959 -97.04168 4019 ft 214 kts 314°
2026-05-06 23:06 32.60185 -97.05146 4008 ft 215 kts 339°
2026-05-06 23:06 32.61666 -97.05434 4027 ft 218 kts 353°
2026-05-06 23:07 32.63165 -97.05557 4022 ft 218 kts 355°
2026-05-06 23:07 32.64682 -97.05625 4014 ft 217 kts 358°
2026-05-06 23:07 32.66200 -97.05624 4017 ft 219 kts 358°
2026-05-06 23:07 32.67726 -97.05613 4045 ft 219 kts 357°
2026-05-06 23:08 32.69257 -97.05603 4043 ft 219 kts 359°
2026-05-06 23:08 32.70778 -97.05595 3939 ft 219 kts 359°
2026-05-06 23:08 32.72259 -97.05585 3662 ft 213 kts 359°
2026-05-06 23:08 32.73713 -97.05576 3407 ft 200 kts
2026-05-06 23:09 32.75066 -97.05568 3144 ft 190 kts
2026-05-06 23:09 32.76378 -97.05559 2904 ft 183 kts
2026-05-06 23:09 32.77596 -97.05552 2636 ft 168 kts
2026-05-06 23:09 32.78748 -97.05545 2422 ft 164 kts
2026-05-06 23:10 32.79856 -97.05538 2169 ft 155 kts
2026-05-06 23:10 32.80885 -97.05531 1962 ft 142 kts
2026-05-06 23:10 32.81860 -97.05525 1776 ft 139 kts
2026-05-06 23:10 32.82825 -97.05519 1619 ft 138 kts
2026-05-06 23:11 32.83785 -97.05512 1415 ft 139 kts
2026-05-06 23:11 32.84740 -97.05506 1247 ft 140 kts
2026-05-06 23:11 32.85730 -97.05501 1078 ft 141 kts
2026-05-06 23:11 32.86709 -97.05483 885 ft 138 kts
2026-05-06 23:12 32.87665 -97.05489 679 ft 139 kts
2026-05-06 23:12 32.88597 -97.05478 614 ft 119 kts 360°
2026-05-06 23:12 32.89305 -97.05475 614 ft 84 kts
2026-05-06 23:12 32.89778 -97.05474 614 ft 59 kts
2026-05-06 23:13 32.90153 -97.05468 613 ft 49 kts
2026-05-06 23:13 32.90376 -97.05349 617 ft 18 kts 31°
2026-05-06 23:13 32.90465 -97.05277 618 ft 12 kts 53°
2026-05-06 23:13 32.90474 -97.05231 606 ft 0 kts 88°
2026-05-06 23:14 32.90475 -97.05214 610 ft 6 kts 89°
2026-05-06 23:15 32.90475 -97.05135 606 ft 14 kts 90°
2026-05-06 23:15 32.90472 -97.04996 606 ft 16 kts 91°
2026-05-06 23:15 32.90470 -97.04910 608 ft 5 kts 104°
2026-05-06 23:15 32.90444 -97.04889 610 ft 7 kts 163°
2026-05-06 23:16 32.90384 -97.04885 618 ft 10 kts 181°
2026-05-06 23:16 32.90309 -97.04886 613 ft 11 kts 180°
2026-05-06 23:16 32.90234 -97.04887 624 ft 11 kts 180°
2026-05-06 23:16 32.90161 -97.04887 614 ft 10 kts 180°
2026-05-06 23:17 32.90090 -97.04887 624 ft 10 kts 180°
2026-05-06 23:17 32.90021 -97.04887 614 ft 10 kts 181°
2026-05-06 23:17 32.89954 -97.04887 614 ft 9 kts 180°
2026-05-06 23:17 32.89890 -97.04888 613 ft 9 kts 180°
2026-05-06 23:18 32.89832 -97.04889 614 ft 7 kts 181°
2026-05-06 23:18 32.89785 -97.04889 614 ft 7 kts 180°
2026-05-06 23:18 32.89767 -97.04878 614 ft 2 kts 139°
2026-05-06 23:18 32.89760 -97.04855 621 ft 5 kts 103°
2026-05-06 23:19 32.89759 -97.04799 618 ft 7 kts 90°
2026-05-06 23:19 32.89767 -97.04775 616 ft 1 kts 61°
2026-05-06 23:19 32.89775 -97.04768 621 ft 2 kts 36°
2026-05-06 23:19 32.89801 -97.04749 613 ft 5 kts 32°
2026-05-06 23:20 32.89826 -97.04727 618 ft 4 kts 40°
2026-05-06 23:20 32.89838 -97.04694 619 ft 5 kts 78°
2026-05-06 23:20 32.89838 -97.04657 610 ft 4 kts 90°
2026-05-06 23:20 32.89838 -97.04634 609 ft 2 kts 90°
2026-05-06 23:21 32.89838 -97.04603 606 ft 5 kts 90°
2026-05-06 23:21 32.89838 -97.04586 606 ft 0 kts 90°